{"data":{"norad_id":68728,"intl_designator":"2026-082A","name":"STARLINK-37242","alt_names":[],"object_type":"PAYLOAD","status":"ACTIVE","operator":null,"country":"US","launch_date":"2026-04-15","launch_site_code":"AFWTR","launch_vehicle":null,"mission":null,"orbit_class":"UNKNOWN","rcs_meters":null,"size_class":null,"mass_kg":null,"dimensions":null,"purposes":["comms"],"wikipedia_slug":null,"has_3d_model":false,"image_url":null,"decayed_at":null,"tle_current":{"epoch":"2026-09-18T23:46:54.919488Z","epoch_age_seconds":171730,"freshness":"FRESH","line1":"1 68728U 26082A   26261.99091342  .00018916  00000+0  58651-3 0  9995","line2":"2 68728  97.2868 124.1532 0001897  71.1215 289.0234 15.33458955 24072","mean_motion":15.33458955,"eccentricity":0.0001897,"inclination_deg":97.2868,"raan_deg":124.1532,"arg_perigee_deg":71.1215,"mean_anomaly_deg":289.0234,"bstar":0.00058651,"rev_number":2407,"period_min":93.905350078314,"perigee_km":464.20341627842,"apogee_km":466.79989278395,"semimajor_km":6843.6386545312,"source":"CELESTRAK","updated_at":"2026-09-20T09:00:43.989297Z"}}}